Regional Weather Roundup
Issued by NWS

Home | Current Version | Previous Version | Graphics & Text | Print | Product List | Glossary On
Versions: 1 2 3 4 5 6 7 8 9 10 11 12 13 14 15 16 17 18 19 20 21 22 23 24 25 26 27
000
ASUS45 KPSR 270510
RWRAZ

ARIZONA HOURLY REGIONAL WEATHER ROUNDUP
NATIONAL WEATHER SERVICE PHOENIX AZ
1000 PM MST THU MAY 26 2016

NOTE: FAIR INDICATES FEW OR NO CLOUDS BELOW 12,000 FEET WITH NO
SIGNIFICANT WEATHER AND/OR OBSTRUCTIONS TO VISIBILITY.

AZZ001>003-036-270600-
NORTHWEST ARIZONA

CITY           SKY/WX    TMP DP  RH WIND       PRES   REMARKS
BULLHEAD CITY  CLEAR     81  32  17 SE3       29.83R
KINGMAN        CLEAR     63  28  26 S10       29.95R
$$

AZZ004>008-015-016-018-270600-
NORTH CENTRAL ARIZONA

CITY           SKY/WX    TMP DP  RH WIND       PRES   REMARKS
GRAND CANYON   CLEAR     39  28  64 E3        30.09R
WILLIAMS       CLEAR     41  27  56 S8        30.16S
PRESCOTT       CLEAR     57  27  31 W7        30.03R
FLAGSTAFF      CLEAR     39  29  67 CALM      30.10R
PAYSON         PTCLDY    59  27  29 W3        30.06R
PAGE           MOCLDY    63  35  35 CALM      29.96R
$$

AZZ009>014-017-270600-
NORTHEAST ARIZONA

CITY           SKY/WX    TMP DP  RH WIND       PRES   REMARKS
WINSLOW        MOCLDY    55  29  36 W8        30.01R
SAINT JOHNS    LGT RAIN  57  30  35 NW12G21   30.02R
WINDOW ROCK    MOCLDY    48  30  49 CALM      30.04S
SHOW LOW       MOCLDY    52  23  32 CALM      30.09R
$$

AZZ023-270600-
GREATER PHOENIX AREA

CITY           SKY/WX    TMP DP  RH WIND       PRES   REMARKS
PHOENIX        CLEAR     78  30  17 SW5       29.83R
BUCKEYE        CLEAR     73  36  25 SW7       29.86R
LUKE AFB       CLEAR     76  34  21 SW10      29.83R
DEER VALLEY    CLEAR     76  29  17 SW7       29.85R
SCOTTSDALE     CLEAR     76  30  18 E3        29.87R
MESA-GATEWAY   CLEAR     72  34  25 S3        29.87R
$$

AZZ027-028-270600-
SOUTHWEST MARICOPA COUNTY AND PINAL COUNTY

CITY           SKY/WX    TMP DP  RH WIND       PRES   REMARKS
CASA GRANDE    CLEAR     70  28  21 CALM      29.88S
GILA BEND      FAIR      74  26  17 S7        29.85R
$$

AZZ503-504-507>509-270600-
SOUTHEAST ARIZONA

CITY           SKY/WX    TMP DP  RH WIND       PRES   REMARKS
TUCSON         CLEAR     72  28  19 NW6       29.95R
DAVIS-MONTHAN  CLEAR     71  28  20 N8        29.93R
NOGALES        CLEAR     58  22  24 E3        29.99R
SIERRA VISTA   CLEAR     60  22  23 W8        30.04R
DOUGLAS        CLEAR     56  20  24 NW9       30.00R
SAFFORD        CLEAR     67  25  20 NW10      29.93R
$$

AZZ020-021-025-026-031-270600-
SOUTHWEST ARIZONA

CITY           SKY/WX    TMP DP  RH WIND       PRES   REMARKS
YUMA           CLEAR     76  45  33 S9        29.83R
$$

CAZ031-033-041-043-047-048-061-270600-
SOUTHERN CALIFORNIA

CITY           SKY/WX    TMP DP  RH WIND       PRES   REMARKS
DOWNTOWN L.A.  CLEAR     61  52  72 CALM      29.98R
L.A. AIRPORT   CLEAR     60  54  80 SW5       29.98R
SAN DIEGO      CLOUDY    65  54  67 W7        30.01R
BURBANK        CLEAR     61  50  67 SE8       29.97R
ONTARIO        CLEAR     62  52  69 W7        29.98R
RIVERSIDE      CLEAR     64  52  64 W3        29.98R
PALM SPRINGS   CLEAR     77  46  33 W22G33    29.83R
EL CENTRO NAS  CLEAR     77  48  35 W13       29.83R
IMPERIAL       CLEAR     76  49  38 W10       29.81R
BLYTHE         CLEAR     83  39  21 SW8       29.81R
NEEDLES        CLEAR     82  31  15 W10       29.81R
$$

NVZ020-UTZ003-270600-
SOUTHERN NEVADA-UTAH

CITY           SKY/WX    TMP DP  RH WIND       PRES   REMARKS
LAS VEGAS      PTCLDY    78  30  17 SW8       29.82R
SALT LAKE CITY PTCLDY    56  40  55 SW6       29.95R
$$

NMZ009-TXZ055-270600-
NEW MEXICO-WEST TEXAS

CITY           SKY/WX    TMP DP  RH WIND       PRES   REMARKS
ALBUQUERQUE    PTCLDY    59  21  23 N10       29.95R
EL PASO        CLEAR     73  12   9 NW16      29.88R
$$


........................KEY........................
SKY/WX - SKY CONDITION/WEATHER
TMP    - TEMPERATURE IN FAHRENHEIT
DP     - DEW POINT IN FAHRENHEIT
RH     - RELATIVE HUMIDITY IN PERCENT
WIND   - DIRECTION AND SPEED IN MILES PER HOUR (MPH)
VRB    - VARIABLE WIND DIRECTION
PRES   - MEAN SEA LEVEL PRESSURE IN INCHES OF MERCURY
         F - FALLING PRESSURE   R - RISING PRESSURE
         S - STEADY PRESSURE
VSB    - VISIBILITY IN MILES
HX     - HEAT INDEX IN FAHRENHEIT
WCI    - WIND CHILL INDEX IN FAHRENHEIT
TC     - TEMPERATURE IN CELSIUS WHICH IS ALSO KNOWN AS
         TEMPERATURE IN CENTIGRADE
AFB    - AIR FORCE BASE
         LUKE AFB IS LUKE AIR FORCE BASE
         DAVIS-MONTHAN IS DAVIS-MONTHAN AIR FORCE BASE
NAS    - NAVAL AIR STATION
         EL CENTRO NAS IS EL CENTRO NAVAL AIR STATION
N/A    - NOT AVAILABLE





USA.gov is the U.S. government's official web portal to all federal, state and local government web resources and services.